Location: Unspecified
(0.0000°N, 0.0000°E)
Time: 11:42:46
(UTC+00:00)

ISS - Visible Passes

Search period start: 07 February 2026 00:00
Search period end: 17 February 2026 00:00
Orbit: 414 x 429 km, 51.6° (Epoch: 6 February)

Date Brightness Start Highest point End Pass type
(mag) Time Alt. Az. Time Alt. Az. Time Alt. Az.
8 Feb -3.0 05:02:34 10° SSW 05:05:51 54° SE 05:09:07 10° NE visible
9 Feb -1.3 04:19:22 22° ESE 04:19:22 22° ESE 04:21:40 10° ENE visible
10 Feb -1.9 05:10:05 17° NNW 05:10:05 17° NNW 05:11:20 10° N visible
